GW4827 Weather Reports


time (UTC)temp
C
wind
direction
speed
KPH
gust
KPH
rain 1hr
cm
rain 24hr
cm
rain mn
cm
humidity
%
barometer
mb
20260505025043 13 213 9.7 20.9 0.00 0.00 0.00 62 1011.0
20260505024542 13 237 8.0 9.7 0.00 0.00 0.00 61 1010.8
20260505023942 13 232 4.8 17.7 0.00 0.00 0.00 61 1011.1
20260505023442 13 153 8.0 9.7 0.00 0.00 0.00 60 1010.9
20260505022942 13 221 14.5 17.7 0.00 0.00 0.00 60 1010.9
20260505022503 13 228 8.0 14.5 0.00 0.00 0.00 60 1011.0
20260505021941 13 236 20.9 24.1 0.00 0.00 0.00 59 1011.1
20260505021441 14 266 9.7 20.9 0.00 0.00 0.00 58 1010.9
20260505020941 14 185 3.2 24.1 0.00 0.00 0.00 58 1010.8
20260505020501 14 253 8.0 17.7 0.00 0.00 0.00 57 1011.0
20260505015941 14 216 4.8 16.1 0.00 0.00 0.00 57 1010.6
20260505015441 14 193 4.8 14.5 0.00 0.00 0.00 57 1010.7
20260505014940 14 211 4.8 22.5 0.00 0.00 0.00 56 1010.9
20260505014440 14 240 9.7 11.3 0.00 0.00 0.00 56 1010.7
20260505013840 14 220 4.8 14.5 0.00 0.00 0.00 55 1010.8
20260505013359 15 221 9.7 14.5 0.00 0.00 0.00 55 1010.8
20260505012839 15 214 8.0 24.1 0.00 0.00 0.00 54 1010.7
20260505012339 15 218 3.2 17.7 0.00 0.00 0.00 54 1010.4
20260505011839 15 207 8.0 17.7 0.00 0.00 0.00 53 1010.5
20260505011359 15 177 3.2 32.2 0.00 0.00 0.00 52 1010.3
20260505010838 15 190 9.7 17.7 0.00 0.00 0.00 52 1010.4
20260505010338 15 268 11.3 16.1 0.00 0.00 0.00 52 1010.3
20260505005838 15 206 6.4 14.5 0.00 0.00 0.00 52 1010.2
20260505005338 15 239 9.7 16.1 0.00 0.00 0.00 52 1010.3
20260505004838 16 191 6.4 22.5 0.00 0.00 0.00 51 1010.2
20260505004337 16 207 12.9 20.9 0.00 0.00 0.00 50 1009.9
20260505003737 16 150 6.4 14.5 0.00 0.00 0.00 50 1009.9
20260505003317 16 225 22.5 24.1 0.00 0.00 0.00 49 1009.5
20260505002757 16 235 1.6 11.3 0.00 0.00 0.00 50 1009.4
20260505002237 16 217 6.4 20.9 0.00 0.00 0.00 49 1009.1
20260505001737 16 186 6.4 19.3 0.00 0.00 0.00 49 1009.2
20260505001236 16 236 8.0 17.7 0.00 0.00 0.00 49 1009.1
20260505000736 16 250 6.4 17.7 0.00 0.00 0.00 49 1008.8
20260505000236 16 0.0 14.5 0.00 0.00 0.00 49 1008.8
20260504235756 17 196 9.7 22.5 0.00 0.00 0.00 48 1008.7
20260504235235 17 178 9.7 16.1 0.00 0.00 0.00 48 1008.5
20260504234736 17 168 6.4 25.7 0.00 0.00 0.00 48 1008.5
20260504234235 17 212 19.3 27.4 0.00 0.00 0.00 47 1008.2
20260504233635 17 191 9.7 17.7 0.00 0.00 0.00 47 1008.3
20260504233234 17 192 6.4 27.4 0.00 0.00 0.00 46 1008.4
20260504232734 17 225 8.0 32.2 0.00 0.00 0.00 46 1008.2
20260504232234 18 239 17.7 19.3 0.00 0.00 0.00 45 1008.1
20260504231734 18 225 9.7 30.6 0.00 0.00 0.00 45 1008.1
20260504231234 18 223 19.3 24.1 0.00 0.00 0.00 45 1007.9
20260504230733 18 224 8.0 29.0 0.00 0.00 0.00 44 1007.8
20260504230253 18 242 14.5 24.1 0.00 0.00 0.00 44 1007.8
20260504225733 18 154 19.3 24.1 0.00 0.00 0.00 43 1007.6
20260504225233 19 221 19.3 32.2 0.00 0.00 0.00 42 1007.5
20260504224813 19 248 4.8 20.9 0.00 0.00 0.00 41 1007.6
20260504224232 20 208 17.7 24.1 0.00 0.00 0.00 40 1007.5
20260504223732 20 233 14.5 35.4 0.00 0.00 0.00 40 1007.4
20260504223232 20 227 8.0 22.5 0.00 0.00 0.00 40 1007.4
20260504222732 20 203 4.8 17.7 0.00 0.00 0.00 39 1007.4
20260504222232 20 257 20.9 24.1 0.00 0.00 0.00 38 1007.4
20260504221732 20 209 20.9 24.1 0.00 0.00 0.00 38 1007.3
20260504221231 20 224 3.2 17.7 0.00 0.00 0.00 38 1007.3
20260504220731 21 293 25.7 33.8 0.00 0.00 0.00 36 1007.3
20260504220231 21 223 11.3 11.3 0.00 0.00 0.00 36 1007.2
20260504215751 21 152 14.5 22.5 0.00 0.00 0.00 35 1007.2
20260504215230 22 170 8.0 17.7 0.00 0.00 0.00 33 1007.5
20260504214731 21 162 14.5 24.1 0.00 0.00 0.00 32 1007.1
20260504214230 21 262 14.5 22.5 0.00 0.00 0.00 32 1007.2
20260504213730 22 234 6.4 12.9 0.00 0.00 0.00 31 1007.1
20260504213229 22 235 9.7 20.9 0.00 0.00 0.00 32 1007.3
20260504212750 21 213 4.8 22.5 0.00 0.00 0.00 33 1007.1
20260504212229 21 246 9.7 17.7 0.00 0.00 0.00 33 1006.9
20260504211729 22 244 11.3 19.3 0.00 0.00 0.00 32 1007.3
20260504211229 22 240 9.7 17.7 0.00 0.00 0.00 31 1007.0
20260504210729 21 212 11.3 29.0 0.00 0.00 0.00 32 1007.1
20260504210228 22 258 16.1 32.2 0.00 0.00 0.00 31 1007.2
20260504205748 22 216 8.0 17.7 0.00 0.00 0.00 31 1007.1
20260504205228 22 253 16.1 25.7 0.00 0.00 0.00 31 1007.2
20260504204729 22 246 9.7 32.2 0.00 0.00 0.00 31 1007.0
20260504204228 22 249 4.8 20.9 0.00 0.00 0.00 31 1007.0
20260504203748 22 276 19.3 32.2 0.00 0.00 0.00 31 1007.1
20260504203227 22 276 17.7 33.8 0.00 0.00 0.00 31 1007.1
20260504202727 22 204 17.7 35.4 0.00 0.00 0.00 30 1007.2
20260504202227 22 253 16.1 25.7 0.00 0.00 0.00 30 1007.1
20260504201727 22 213 14.5 25.7 0.00 0.00 0.00 30 1007.1
20260504201246 22 212 8.0 29.0 0.00 0.00 0.00 30 1007.3
20260504200806 22 231 12.9 29.0 0.00 0.00 0.00 30 1007.2
20260504200226 22 225 3.2 22.5 0.00 0.00 0.00 30 1007.2
20260504195747 22 256 6.4 19.3 0.00 0.00 0.00 30 1007.5
20260504195226 22 255 11.3 24.1 0.00 0.00 0.00 30 1007.4
20260504194726 22 210 9.7 20.9 0.00 0.00 0.00 29 1007.2
20260504194225 22 272 19.3 32.2 0.00 0.00 0.00 29 1007.2
20260504193725 22 215 9.7 19.3 0.00 0.00 0.00 29 1007.3
20260504193124 22 272 9.7 25.7 0.00 0.00 0.00 29 1007.3
20260504192725 22 196 22.5 25.7 0.00 0.00 0.00 28 1007.3
20260504192224 21 226 20.9 37.0 0.00 0.00 0.00 29 1007.4
20260504191724 22 209 14.5 32.2 0.00 0.00 0.00 28 1007.2
20260504191224 21 238 6.4 24.1 0.00 0.00 0.00 28 1007.4
20260504190724 22 265 24.1 27.4 0.00 0.00 0.00 28 1007.5
20260504190224 21 278 22.5 30.6 0.00 0.00 0.00 29 1007.5
20260504185723 22 262 11.3 22.5 0.00 0.00 0.00 29 1007.5
20260504185223 21 205 6.4 27.4 0.00 0.00 0.00 28 1007.5
20260504184723 21 278 9.7 33.8 0.00 0.00 0.00 30 1007.5
20260504184243 21 235 8.0 22.5 0.00 0.00 0.00 29 1007.6
20260504183722 22 271 14.5 22.5 0.00 0.00 0.00 28 1007.7
20260504183243 22 264 6.4 32.2 0.00 0.00 0.00 30 1007.7
20260504182622 21 226 25.7 30.6 0.00 0.00 0.00 29 1007.5
20260504182123 21 208 8.0 27.4 0.00 0.00 0.00 30 1007.8
20260504181622 22 185 11.3 29.0 0.00 0.00 0.00 29 1008.1
20260504181122 21 193 19.3 32.2 0.00 0.00 0.00 30 1007.8
20260504180621 21 240 17.7 40.2 0.00 0.00 0.00 30 1007.8
20260504180141 21 229 9.7 27.4 0.00 0.00 0.00 30 1008.1
20260504175621 21 232 3.2 20.9 0.00 0.00 0.00 30 1008.0
20260504175142 21 260 14.5 32.2 0.00 0.00 0.00 30 1007.8
20260504174621 21 242 12.9 27.4 0.00 0.00 0.00 30 1008.0
20260504174121 21 221 6.4 22.5 0.00 0.00 0.00 31 1008.1
20260504173621 21 236 11.3 25.7 0.00 0.00 0.00 31 1008.0
20260504173141 21 266 17.7 30.6 0.00 0.00 0.00 30 1008.1
20260504172520 21 323 6.4 27.4 0.00 0.00 0.00 30 1008.1
20260504172020 20 219 20.9 40.2 0.00 0.00 0.00 30 1008.2
20260504171622 20 225 17.7 32.2 0.00 0.00 0.00 31 1008.1
20260504171020 20 223 16.1 29.0 0.00 0.00 0.00 31 1008.2
20260504170519 20 252 19.3 37.0 0.00 0.00 0.00 30 1008.3
20260504160417 19 255 24.1 41.8 0.00 0.00 0.00 34 1009.1
20260504150836 18 255 14.5 35.4 0.00 0.00 0.00 35 1009.3
20260504150315 19 160 3.2 20.9 0.00 0.00 0.00 36 1009.4
20260504141213 17 223 16.1 20.9 0.00 0.05 0.00 38 1009.7
20260504140713 17 230 19.3 22.5 0.00 0.08 0.00 39 1009.8
20260504140212 17 243 6.4 16.1 0.00 0.08 0.00 40 1009.8
20260504130611 14 263 29.0 33.8 0.00 0.10 0.00 45 1010.6
20260504130110 14 256 17.7 22.5 0.00 0.10 0.00 45 1010.7
20260504110424 8 223 3.2 11.3 0.00 0.10 0.00 57 1010.7
20260504100403 7 222 11.3 11.3 0.00 0.10 0.00 63 1010.7
20260504081658 7 248 3.2 8.0 0.00 0.10 0.00 66 1010.8
20260504081258 6 245 1.6 4.8 0.00 0.10 0.00 66 1010.5
20260504080558 6 244 3.2 4.8 0.00 0.10 0.00 66 1010.8
20260504050349 2 0.0 1.6 0.00 0.10 0.00 87 1010.5
20260504045909 1 277 1.6 1.6 0.00 0.10 0.00 88 1010.5
20260504045349 1 279 3.2 3.2 0.00 0.10 0.00 88 1010.4
20260504044910 1 259 3.2 3.2 0.00 0.10 0.00 88 1010.8
20260504044349 1 297 1.6 3.2 0.00 0.10 0.00 87 1010.8
20260504043848 1 245 1.6 3.2 0.00 0.10 0.00 87 1011.0
20260504043348 1 277 3.2 3.2 0.00 0.10 0.00 86 1010.7
20260504042849 1 261 1.6 3.2 0.00 0.10 0.00 86 1010.7
20260504042408 1 287 3.2 3.2 0.00 0.10 0.00 86 1010.7
20260504041908 1 0.0 3.2 0.00 0.10 0.00 85 1010.6
20260504041247 1 301 1.6 3.2 0.00 0.10 0.00 85 1010.6
20260504040747 1 0.0 3.2 0.00 0.10 0.00 85 1010.5
20260504040347 1 280 3.2 4.8 0.00 0.10 0.00 85 1010.5
20260504035747 1 0.0 4.8 0.00 0.10 0.10 84 1010.2
20260504035247 1 290 3.2 3.2 0.00 0.10 0.10 84 1010.4
20260504034746 1 281 1.6 3.2 0.00 0.10 0.10 84 1010.3
20260504034246 1 267 1.6 3.2 0.00 0.10 0.10 83 1010.2
20260504033806 1 280 3.2 3.2 0.00 0.10 0.10 83 1010.4
20260504033246 1 253 1.6 3.2 0.00 0.10 0.10 83 1010.0
20260504032746 2 311 1.6 3.2 0.00 0.10 0.10 82 1010.2
20260504032246 2 0.0 1.6 0.00 0.10 0.10 82 1010.2
20260504031645 2 293 1.6 1.6 0.00 0.10 0.10 82 1010.3
20260504031205 2 0.0 3.2 0.00 0.10 0.10 81 1010.2
20260504030705 2 290 1.6 1.6 0.00 0.10 0.10 81 1010.1
20260504030204 2 0.0 1.6 0.00 0.10 0.10 80 1010.2
20260504025645 2 314 1.6 3.2 0.00 0.10 0.10 79 1010.2